Location: Ehrke Reservoir
(40.0279°N, 99.6641°W)
Time: 21:33:58
(UTC+00:00)

Meteor 1-21 Rocket - Pass Details

Date: 20 January 2020
Orbit: 834 x 906 km, 81.2° (Epoch: 24 February)

Event Time Altitude Azimuth Distance (km) Brightness Sun altitude
Rises 01:01:38 0° 183° (S) 3,372 7.6 -15.1°
Reaches altitude 10° 01:04:01 10° 182° (S) 2,447 6.8 -15.6°
Maximum altitude 01:09:33 78° 97° (E) 872 4.1 -16.6°
Drops below altitude 10° 01:15:13 10° 12° (NNE) 2,503 6.4 -17.7°
Sets 01:17:41 0° 11° (NNE) 3,455 7.2 -18.1°
